Location: Alberta Star Party
(51.6612°N, 112.9089°W)
Time: 08:05:29
(UTC-06:00)

Amateur Radio Satellites - All Passes

Search period start: 28 March 2017 07:35
Search period end: 29 March 2017 07:35
Location: Alberta Star Party, 51.6612°N, 112.9089°W

Satellite Date Start Highest point End Downlink Frequencies (MHz)
Time Altitude Azimuth
HO-68 28 Mar 07:41:36 07:46:17 18° 85° (E) 07:50:56 435.675
NUDT-PHONESAT 28 Mar 07:42:03 07:45:38 46° 99° (E) 07:49:11 437.300
XW-2D 28 Mar 07:49:11 07:52:57 71° 102° (ESE) 07:56:41 145.860 - 145.880
KAITUO 1B 28 Mar 07:51:40 07:55:21 60° 101° (ESE) 07:59:00 145.475/437.950
M-CUBED/EXP-1 PRIME 28 Mar 07:55:00 07:57:27 16° 266° (W) 08:00:03 437.505
XW-2B 28 Mar 07:55:10 07:58:57 80° 103° (ESE) 08:02:42 145.730 - 145.750
BEESAT 3 28 Mar 07:56:35 08:00:14 33° 239° (WSW) 08:03:51 437.485
XW-2C 28 Mar 08:05:28 08:09:14 79° 285° (WNW) 08:12:58 145.795 - 145.815
NO-84 28 Mar 08:06:31 08:09:12 38° 146° (SE) 08:11:55 435.350 FM
BEESAT 2 28 Mar 08:16:11 08:20:07 48° 235° (SW) 08:24:01 435.950
DOVE 4 28 Mar 08:25:12 08:30:21 51° 291° (WNW) 08:35:26 437.250
CUTE-I 28 Mar 08:27:50 08:33:12 76° 288° (WNW) 08:38:31 437.470
AAUSAT CUBESAT 2 28 Mar 08:35:00 08:36:31 12° 86° (E) 08:38:00 437.432
UNISAT 6 28 Mar 08:43:17 08:44:41 11° 51° (NE) 08:46:04 437.425
PRISM 28 Mar 08:53:19 08:56:14 19° 59° (ENE) 08:59:10 437.425
SEEDS 28 Mar 08:54:35 08:58:24 33° 96° (E) 09:02:12 437.485
XW-2F 28 Mar 08:56:36 08:59:41 25° 295° (WNW) 09:02:46 145.980 - 146.000
XW-2A 28 Mar 08:57:24 09:00:48 62° 102° (ESE) 09:04:08 145.665 - 145.685
LilacSat-2 28 Mar 09:01:37 09:04:32 22° 297° (WNW) 09:07:27 437.200
CUTE 1.7 + AOD 2 28 Mar 09:04:57 09:09:08 60° 101° (E) 09:13:19 437.475
CUBEBUG 2 28 Mar 09:07:34 09:11:35 32° 95° (E) 09:15:28 437.445
ZACube-1 28 Mar 09:07:35 09:09:38 13° 86° (E) 09:11:39 437.345
STRAND 1 28 Mar 09:10:39 09:14:45 23° 269° (W) 09:18:51 437.568
NUDT-PHONESAT 28 Mar 09:16:39 09:19:17 19° 298° (WNW) 09:21:54 437.300
PCSat 28 Mar 09:20:08 09:23:34 17° 106° (ESE) 09:27:02 145.827
XW-2D 28 Mar 09:24:39 09:26:40 14° 301° (WNW) 09:28:41 145.860 - 145.880
AO-7 28 Mar 09:26:10 09:29:50 14° 337° (NNW) 09:33:30 .
YUBILEINY 28 Mar 09:26:31 09:35:11 66° 285° (WNW) 09:43:54 435.215
KAITUO 1B 28 Mar 09:26:44 09:28:59 16° 300° (WNW) 09:31:13 145.475/437.950
HO-68 28 Mar 09:28:00 09:35:13 77° 107° (ESE) 09:42:24 435.675
FO-29 28 Mar 09:30:29 09:36:51 31° 57° (ENE) 09:42:46 435.910
XW-2B 28 Mar 09:30:52 09:32:37 13° 302° (WNW) 09:34:21 145.730 - 145.750
AO-73 28 Mar 09:33:55 09:37:10 21° 91° (E) 09:40:23 145.935
XW-2C 28 Mar 09:42:06 09:42:46 10° 305° (NW) 09:43:26 145.795 - 145.815
NO-84 28 Mar 09:43:52 09:46:41 52° 347° (NNW) 09:49:34 435.350 FM
DOVE 4 28 Mar 10:05:08 10:06:54 12° 312° (NW) 10:08:42 437.250
TIGRISAT 28 Mar 10:05:17 10:09:44 45° 68° (ENE) 10:14:09 435.000
UWE-3 28 Mar 10:05:57 10:10:18 75° 102° (ESE) 10:14:32 435.000/436.395/437.385
AAUSAT CUBESAT 2 28 Mar 10:08:25 10:12:35 88° 290° (WNW) 10:16:45 437.432
CUTE-I 28 Mar 10:09:09 10:12:26 17° 309° (NW) 10:15:41 437.470
UNISAT 6 28 Mar 10:15:54 10:20:30 59° 71° (ENE) 10:25:04 437.425
AIST 2D 28 Mar 10:25:17 10:25:52 10° 57° (ENE) 10:26:28 435.315
PRISM 28 Mar 10:27:09 10:31:09 58° 258° (WSW) 10:35:15 437.425
SEEDS 28 Mar 10:30:21 10:34:03 31° 294° (WNW) 10:37:46 437.485
Oscar 11 28 Mar 10:30:58 10:35:16 65° 102° (ESE) 10:39:32 .
XW-2A 28 Mar 10:31:28 10:33:08 13° 300° (WNW) 10:34:46 145.665 - 145.685
CUTE 1.7 + AOD 2 28 Mar 10:41:36 10:44:36 19° 300° (WNW) 10:47:35 437.475
ZACube-1 28 Mar 10:42:15 10:46:32 80° 284° (WNW) 10:50:41 437.345
CUBEBUG 2 28 Mar 10:44:12 10:48:13 34° 295° (WNW) 10:52:06 437.445
POLYITAN 1 28 Mar 10:51:54 10:54:37 17° 57° (ENE) 10:57:21 437.675
QB50P2 28 Mar 10:56:16 10:59:17 19° 59° (ENE) 11:02:18 145.880/145.840
PCSat 28 Mar 11:00:46 11:06:12 85° 126° (SE) 11:11:41 145.827
DUCHIFAT 1 28 Mar 11:05:22 11:08:17 18° 59° (ENE) 11:11:13 145.980
AO-73 28 Mar 11:09:37 11:13:42 47° 291° (WNW) 11:17:41 145.935
DELFI C3 28 Mar 11:09:53 11:13:49 54° 101° (E) 11:17:43 145.870
FO-29 28 Mar 11:13:37 11:21:22 79° 255° (WSW) 11:28:30 435.910
HO-68 28 Mar 11:16:21 11:22:22 30° 308° (NW) 11:28:24 435.675
AO-7 28 Mar 11:18:37 11:19:05 10° 5° (N) 11:19:33 .
NO-84 28 Mar 11:21:42 11:24:31 44° 8° (N) 11:27:29 435.350 FM
YUBILEINY 28 Mar 11:28:02 11:34:02 20° 312° (NW) 11:40:03 435.215
TIGRISAT 28 Mar 11:42:37 11:46:35 27° 266° (W) 11:50:34 435.000
RS-15 28 Mar 11:42:38 11:50:44 21° 96° (E) 11:58:56 29.354- 29.394
UWE-3 28 Mar 11:43:29 11:46:14 17° 303° (WNW) 11:48:55 435.000/436.395/437.385
AAUSAT CUBESAT 2 28 Mar 11:45:26 11:47:27 13° 304° (WNW) 11:49:27 437.432
NANOSAT C BR1 28 Mar 11:51:05 11:55:10 47° 69° (ENE) 11:59:18 145.865
UNISAT 6 28 Mar 11:54:03 11:57:34 21° 269° (W) 12:01:05 437.425
AIST 2D 28 Mar 11:54:58 11:58:30 88° 72° (ENE) 12:02:04 435.315
EO-79 28 Mar 11:56:52 12:01:05 58° 71° (ENE) 12:05:19 145.935-145.965
LO-87 28 Mar 12:07:19 12:10:37 30° 96° (E) 12:13:52 145.935 - 145.965
Oscar 11 28 Mar 12:07:58 12:10:59 19° 301° (WNW) 12:13:59 .
ZACube-1 28 Mar 12:20:17 12:22:05 12° 306° (NW) 12:23:52 437.345
POLYITAN 1 28 Mar 12:25:36 12:29:54 76° 256° (WSW) 12:34:13 437.675
QB50P2 28 Mar 12:30:24 12:34:40 64° 259° (WSW) 12:38:57 145.880/145.840
VELOX 1 28 Mar 12:37:16 12:39:26 13° 87° (E) 12:41:35 145.980
DUCHIFAT 1 28 Mar 12:39:18 12:43:32 66° 258° (WSW) 12:47:48 145.980
Oscar 19 28 Mar 12:39:26 12:43:30 24° 58° (ENE) 12:47:35 437.125/150
DELFI C3 28 Mar 12:45:25 12:48:16 19° 299° (WNW) 12:51:07 145.870
PCSat 28 Mar 12:45:34 12:50:15 28° 328° (NNW) 12:54:58 145.827
BUGSAT 1 28 Mar 12:46:46 12:50:57 58° 71° (ENE) 12:55:09 437.445
NO-84 28 Mar 12:59:11 13:02:10 67° 208° (SSW) 13:05:22 435.350 FM
FO-29 28 Mar 13:02:02 13:07:20 20° 275° (W) 13:12:24 435.910
AO-7 28 Mar 13:03:24 13:08:37 19° 33° (NNE) 13:13:49 .
SPROUT 28 Mar 13:04:46 13:08:02 21° 91° (E) 13:11:16 437.525
HO-68 28 Mar 13:07:17 13:07:55 10° 332° (NNW) 13:08:33 435.675
ESTCUBE 1 28 Mar 13:08:51 13:13:23 70° 103° (ESE) 13:17:53 437.505/2401.250
Gurwin Techsat 1B 28 Mar 13:10:23 13:14:47 27° 59° (ENE) 13:19:12 435.225
NANOSAT C BR1 28 Mar 13:27:46 13:31:07 22° 268° (W) 13:34:30 145.865
EO-79 28 Mar 13:34:11 13:37:12 19° 270° (W) 13:40:15 145.935-145.965
LO-87 28 Mar 13:40:54 13:44:00 26° 295° (WNW) 13:47:05 145.935 - 145.965
DX 1 28 Mar 13:42:27 13:46:01 23° 93° (E) 13:49:33 434.975-435.025
RS-15 28 Mar 13:48:52 14:00:48 68° 121° (ESE) 14:13:01 29.354- 29.394
VELOX 1 28 Mar 14:12:02 14:16:32 88° 282° (WNW) 14:21:00 145.980
Oscar 19 28 Mar 14:17:21 14:22:26 64° 257° (WSW) 14:27:34 437.125/150
UKube-1 28 Mar 14:17:50 14:21:52 36° 97° (E) 14:25:52 .
BUGSAT 1 28 Mar 14:23:40 14:26:40 19° 269° (W) 14:29:42 437.445
50 SAT 28 Mar 14:25:13 14:28:45 83° 285° (WNW) 14:32:17 437.505
ITAMSAT 1 28 Mar 14:30:51 14:35:07 26° 58° (ENE) 14:39:25 435.822/435.867
PCSat 28 Mar 14:32:06 14:35:28 16° 354° (N) 14:38:49 145.827
NO-84 28 Mar 14:37:38 14:39:18 14° 225° (SW) 14:41:02 435.350 FM
SPROUT 28 Mar 14:40:03 14:44:15 52° 290° (WNW) 14:48:24 437.525
ESTCUBE 1 28 Mar 14:46:34 14:49:44 19° 302° (WNW) 14:52:54 437.505/2401.250
Gurwin Techsat 1B 28 Mar 14:49:10 14:54:25 60° 258° (WSW) 14:59:42 435.225
AO-7 28 Mar 14:51:42 14:59:36 51° 57° (ENE) 15:07:30 .
BEESAT 28 Mar 15:14:21 15:16:55 14° 87° (E) 15:19:29 436.000
DX 1 28 Mar 15:18:12 15:22:26 47° 292° (WNW) 15:26:39 434.975-435.025
SO-50 28 Mar 15:18:40 15:22:56 37° 122° (ESE) 15:27:10 436.795
ITUPSAT 1 28 Mar 15:31:26 15:34:55 20° 90° (E) 15:38:23 437.325
VELOX 1 28 Mar 15:49:50 15:52:21 15° 305° (NW) 15:54:52 145.980
UKube-1 28 Mar 15:54:01 15:57:51 31° 296° (WNW) 16:01:40 .
RS-15 28 Mar 16:01:48 16:13:54 59° 330° (NNW) 16:26:08 29.354- 29.394
Oscar 19 28 Mar 16:02:01 16:02:49 10° 277° (W) 16:03:36 437.125/150
ITAMSAT 1 28 Mar 16:09:05 16:14:16 61° 258° (WSW) 16:19:27 435.822/435.867
O/OREOS (USA 219) 28 Mar 16:16:51 16:17:40 10° 96° (E) 16:18:29 437.305
PCSat 28 Mar 16:16:56 16:20:57 20° 20° (NNE) 16:24:56 145.827
DOVE 4 28 Mar 16:25:43 16:26:16 10° 46° (NE) 16:26:48 437.250
CUTE-I 28 Mar 16:39:37 16:41:39 12° 46° (NE) 16:43:41 437.470
AO-7 28 Mar 16:44:22 16:52:25 51° 259° (W) 17:00:30 .
MOZHAYETS 4 28 Mar 16:47:22 16:51:45 44° 98° (E) 16:56:06
BEESAT 28 Mar 16:50:35 16:55:23 88° 288° (WNW) 17:00:09 436.000
SO-50 28 Mar 16:58:55 17:03:22 46° 322° (NW) 17:07:46 436.795
XW-2D 28 Mar 17:05:10 17:05:30 10° 55° (NE) 17:05:50 145.860 - 145.880
ITUPSAT 1 28 Mar 17:08:28 17:13:12 65° 290° (WNW) 17:17:55 437.325
XW-2B 28 Mar 17:10:18 17:11:27 11° 56° (NE) 17:12:35 145.730 - 145.750
XW-2C 28 Mar 17:19:40 17:21:38 14° 58° (ENE) 17:23:35 145.795 - 145.815
YUBILEINY 28 Mar 17:33:19 17:40:17 25° 54° (NE) 17:47:12 435.215
CUBESAT XI-V 28 Mar 17:45:47 17:50:00 33° 95° (E) 17:54:12 437.345
KKS-1 28 Mar 17:48:31 17:52:47 40° 98° (E) 17:57:00 437.445
O/OREOS (USA 219) 28 Mar 17:51:40 17:56:11 72° 115° (ESE) 18:00:46 437.305
DOVE 4 28 Mar 17:58:03 18:02:42 47° 67° (ENE) 18:07:37 437.250
PCSat 28 Mar 18:00:15 18:05:35 52° 44° (NE) 18:10:53 145.827
XW-2F 28 Mar 18:08:04 18:11:34 36° 68° (ENE) 18:15:03 145.980 - 146.000
LilacSat-2 28 Mar 18:13:36 18:17:15 44° 70° (ENE) 18:20:53 437.200
CUTE-I 28 Mar 18:15:22 18:20:35 53° 67° (ENE) 18:25:49 437.470
HO-68 28 Mar 18:16:13 18:21:59 28° 50° (NE) 18:27:47 435.675
RS-15 28 Mar 18:17:35 18:29:19 45° 2° (N) 18:40:55 29.354- 29.394
STARS 28 Mar 18:18:08 18:22:16 37° 97° (E) 18:26:22 437.465
MOZHAYETS 4 28 Mar 18:24:52 18:28:45 28° 297° (WNW) 18:32:36
NUDT-PHONESAT 28 Mar 18:26:18 18:29:54 47° 71° (ENE) 18:33:30 437.300
CUTE 1.7 + AOD 2 28 Mar 18:29:33 18:31:28 13° 55° (NE) 18:33:23 437.475
BEESAT 28 Mar 18:29:36 18:32:31 16° 306° (NW) 18:35:25 436.000
XW-2D 28 Mar 18:35:13 18:39:00 75° 75° (ENE) 18:42:48 145.860 - 145.880
KAITUO 1B 28 Mar 18:36:33 18:40:14 61° 73° (ENE) 18:43:56 145.475/437.950
CUBEBUG 2 28 Mar 18:38:18 18:38:58 10° 51° (NE) 18:39:39 437.445
XW-2B 28 Mar 18:41:13 18:45:01 84° 76° (ENE) 18:48:49 145.730 - 145.750
SO-50 28 Mar 18:41:35 18:44:52 19° 345° (NNW) 18:48:08 436.795
AO-7 28 Mar 18:45:11 18:47:21 11° 282° (WNW) 18:49:32 .
ITUPSAT 1 28 Mar 18:48:10 18:50:10 13° 310° (NW) 18:52:09 437.325
XW-2C 28 Mar 18:51:32 18:55:20 75° 258° (WSW) 18:59:08 145.795 - 145.815
CUBESAT XI-V 28 Mar 19:23:08 19:27:25 37° 294° (WNW) 19:31:42 437.345
KKS-1 28 Mar 19:25:19 19:29:14 30° 297° (WNW) 19:33:07 437.445
M-CUBED/EXP-1 PRIME 28 Mar 19:26:23 19:30:08 23° 98° (E) 19:33:52 437.505
YUBILEINY 28 Mar 19:29:46 19:38:32 85° 78° (ENE) 19:47:17 435.215
AAUSAT CUBESAT 2 28 Mar 19:29:50 19:32:28 17° 59° (ENE) 19:35:08 437.432
O/OREOS (USA 219) 28 Mar 19:32:32 19:36:06 22° 316° (NW) 19:39:43 437.305
UWE-3 28 Mar 19:32:54 19:36:06 19° 59° (ENE) 19:39:15 435.000/436.395/437.385
XW-2A 28 Mar 19:33:35 19:36:56 50° 71° (ENE) 19:40:17 145.665 - 145.685
DOVE 4 28 Mar 19:36:24 19:40:36 29° 268° (W) 19:45:02 437.250
STRAND 1 28 Mar 19:36:38 19:39:08 14° 85° (E) 19:41:38 437.568
XW-2F 28 Mar 19:42:45 19:45:49 23° 267° (W) 19:48:53 145.980 - 146.000
PCSat 28 Mar 19:43:55 19:48:52 36° 245° (WSW) 19:53:47 145.827
LilacSat-2 28 Mar 19:48:57 19:51:45 19° 268° (W) 19:54:34 437.200
SEEDS 28 Mar 19:51:07 19:55:04 45° 69° (ENE) 19:59:04 437.485
STARS 28 Mar 19:54:38 19:58:33 31° 296° (WNW) 20:02:26 437.465
CUTE-I 28 Mar 19:56:16 20:00:54 29° 267° (W) 20:05:34 437.470
Oscar 11 28 Mar 19:56:55 19:59:21 15° 56° (ENE) 20:01:48 .
NUDT-PHONESAT 28 Mar 20:01:30 20:04:05 18° 269° (W) 20:06:40 437.300
HO-68 28 Mar 20:01:50 20:09:01 86° 253° (WSW) 20:16:14 435.675
CUTE 1.7 + AOD 2 28 Mar 20:02:26 20:06:38 83° 74° (ENE) 20:10:52 437.475
ZACube-1 28 Mar 20:07:40 20:11:11 23° 61° (ENE) 20:14:39 437.345
CUBEBUG 2 28 Mar 20:10:00 20:14:38 53° 70° (ENE) 20:19:11 437.445
XW-2D 28 Mar 20:12:11 20:13:42 12° 273° (W) 20:15:13 145.860 - 145.880
KAITUO 1B 28 Mar 20:12:39 20:14:40 14° 271° (W) 20:16:40 145.475/437.950
XW-2B 28 Mar 20:18:51 20:19:47 11° 274° (W) 20:20:42 145.730 - 145.750
SO-50 28 Mar 20:23:54 20:26:57 17° 10° (N) 20:29:58 436.795
Tancredo 1 28 Mar 20:32:00 20:32:53 11° 138° (SE) 20:33:45 437.200
RS-15 28 Mar 20:32:11 20:44:32 64° 34° (NE) 20:56:29 29.354- 29.394
AO-73 28 Mar 20:33:56 20:37:59 34° 66° (ENE) 20:41:58 145.935
ISS 28 Mar 20:42:42 20:44:09 12° 139° (SE) 20:45:37 437.550
M-CUBED/EXP-1 PRIME 28 Mar 21:00:17 21:04:49 58° 296° (WNW) 21:09:25 437.505
AO-85 28 Mar 21:00:49 21:04:19 24° 119° (ESE) 21:07:40 145.980
AAUSAT CUBESAT 2 28 Mar 21:03:24 21:07:29 68° 258° (WSW) 21:11:37 437.432
UWE-3 28 Mar 21:07:26 21:12:05 73° 258° (WSW) 21:16:39 435.000/436.395/437.385
XW-2A 28 Mar 21:08:00 21:10:00 14° 270° (W) 21:11:59 145.665 - 145.685
STRAND 1 28 Mar 21:14:00 21:19:10 81° 105° (ESE) 21:24:16 437.568
YUBILEINY 28 Mar 21:27:34 21:34:20 26° 283° (WNW) 21:41:07 435.215
SEEDS 28 Mar 21:27:42 21:30:59 22° 268° (W) 21:34:18 437.485
Oscar 11 28 Mar 21:30:35 21:34:54 86° 254° (WSW) 21:39:16 .
CUTE 1.7 + AOD 2 28 Mar 21:41:13 21:43:05 13° 274° (W) 21:44:57 437.475
ZACube-1 28 Mar 21:42:44 21:47:10 54° 260° (W) 21:51:33 437.345
CUBEBUG 2 28 Mar 21:47:43 21:51:31 24° 268° (W) 21:55:18 437.445
HO-68 28 Mar 21:52:39 21:57:46 21° 273° (W) 22:02:55 435.675
DELFI C3 28 Mar 22:00:11 22:04:04 64° 73° (ENE) 22:07:59 145.870
PRISM 28 Mar 22:04:16 22:06:24 14° 88° (E) 22:08:32 437.425
SO-50 28 Mar 22:04:28 22:08:39 35° 34° (NNE) 22:12:47 436.795
Tancredo 1 28 Mar 22:05:20 22:08:21 42° 156° (SSE) 22:11:25 437.200
AO-73 28 Mar 22:10:07 22:14:13 33° 264° (W) 22:18:15 145.935
ISS 28 Mar 22:16:53 22:20:02 47° 157° (SSE) 22:23:12 437.550
FO-29 28 Mar 22:22:23 22:22:47 10° 77° (ENE) 22:23:10 435.910
M-CUBED/EXP-1 PRIME 28 Mar 22:36:24 22:38:25 13° 315° (NW) 22:40:26 437.505
ESTCUBE 1 28 Mar 22:38:24 22:41:32 19° 58° (ENE) 22:44:41 437.505/2401.250
AO-85 28 Mar 22:40:17 22:44:29 56° 317° (NW) 22:48:27 145.980
RS-15 28 Mar 22:45:16 22:57:14 60° 242° (WSW) 23:08:42 29.354- 29.394
UWE-3 28 Mar 22:48:15 22:49:19 11° 276° (W) 22:50:22 435.000/436.395/437.385
LO-87 28 Mar 22:48:33 22:51:42 29° 66° (ENE) 22:54:55 145.935 - 145.965
STRAND 1 28 Mar 22:54:08 22:57:47 20° 305° (NW) 23:01:25 437.568
Oscar 11 28 Mar 23:10:17 23:11:44 11° 275° (W) 23:13:12 .
BEESAT 3 28 Mar 23:27:42 23:31:38 68° 128° (SE) 23:35:38 437.485
TIGRISAT 28 Mar 23:27:52 23:32:08 44° 98° (E) 23:36:17 435.000
50 SAT 28 Mar 23:34:00 23:34:31 10° 56° (ENE) 23:35:02 437.505
DELFI C3 28 Mar 23:37:05 23:39:18 15° 271° (W) 23:41:32 145.870
PRISM 28 Mar 23:38:02 23:42:13 77° 286° (WNW) 23:46:23 437.425
UNISAT 6 28 Mar 23:38:48 23:43:13 61° 101° (E) 23:47:30 437.425
VELOX 1 28 Mar 23:39:00 23:42:32 24° 60° (ENE) 23:46:04 145.980
Tancredo 1 28 Mar 23:41:11 23:44:22 89° 306° (NW) 23:47:34 437.200
SO-50 28 Mar 23:44:55 23:49:19 52° 235° (SW) 23:53:40 436.795
UKube-1 28 Mar 23:45:17 23:46:10 11° 51° (NE) 23:47:04 .
BEESAT 2 28 Mar 23:49:18 23:53:09 49° 125° (SE) 23:57:03 435.950
ISS 28 Mar 23:53:07 23:56:25 89° 4° (N) 23:59:43 437.550
SPROUT 29 Mar 00:02:55 00:06:44 31° 65° (ENE) 00:10:33 437.525
FO-29 29 Mar 00:03:27 00:09:31 60° 100° (E) 00:14:55 435.910
POLYITAN 1 29 Mar 00:06:42 00:08:33 12° 87° (E) 00:10:22 437.675
QB50P2 29 Mar 00:10:59 00:13:25 15° 88° (E) 00:15:51 145.880/145.840
ESTCUBE 1 29 Mar 00:13:26 00:17:53 69° 257° (WSW) 00:22:23 437.505/2401.250
DUCHIFAT 1 29 Mar 00:19:11 00:21:24 14° 88° (E) 00:23:36 145.980
LO-87 29 Mar 00:22:03 00:25:10 27° 265° (W) 00:28:19 145.935 - 145.965
AO-85 29 Mar 00:22:51 00:25:40 18° 339° (NNW) 00:28:25 145.980
O/OREOS (USA 219) 29 Mar 00:38:50 00:41:11 14° 34° (NE) 00:43:31 437.305
DX 1 29 Mar 00:42:44 00:46:48 40° 66° (ENE) 00:50:54 434.975-435.025
AIST 2D 29 Mar 00:48:00 00:51:26 49° 100° (E) 00:54:49 435.315
RS-15 29 Mar 01:00:04 01:06:51 17° 267° (W) 01:13:30 29.354- 29.394
50 SAT 29 Mar 01:03:30 01:06:58 89° 74° (ENE) 01:10:28 437.505
TIGRISAT 29 Mar 01:04:57 01:08:38 26° 298° (WNW) 01:12:13 435.000
NANOSAT C BR1 29 Mar 01:05:27 01:09:29 40° 98° (E) 01:13:26 145.865
BEESAT 3 29 Mar 01:06:13 01:09:36 26° 329° (NNW) 01:13:02 437.485
EO-79 29 Mar 01:11:42 01:15:52 50° 100° (E) 01:19:59 145.935-145.965
VELOX 1 29 Mar 01:14:24 01:18:42 51° 260° (W) 01:23:04 145.980
PRISM 29 Mar 01:15:07 01:16:49 12° 306° (NW) 01:18:30 437.425
UNISAT 6 29 Mar 01:16:16 01:19:32 20° 301° (WNW) 01:22:44 437.425
UKube-1 29 Mar 01:17:05 01:21:20 61° 71° (ENE) 01:25:37 .
Tancredo 1 29 Mar 01:17:19 01:20:29 67° 195° (SSW) 01:23:39 437.200
BEESAT 2 29 Mar 01:27:29 01:31:06 31° 326° (NW) 01:34:46 435.950
ISS 29 Mar 01:29:36 01:32:52 64° 197° (SSW) 01:36:09 437.550
SPROUT 29 Mar 01:38:39 01:42:36 34° 264° (W) 01:46:35 437.525
POLYITAN 1 29 Mar 01:40:41 01:44:57 85° 285° (WNW) 01:49:11 437.675
QB50P2 29 Mar 01:45:29 01:49:44 72° 287° (WNW) 01:53:56 145.880/145.840
FO-29 29 Mar 01:49:00 01:54:12 29° 304° (NW) 01:58:57 435.910
DUCHIFAT 1 29 Mar 01:53:23 01:57:37 77° 287° (WNW) 02:01:48 145.980
BUGSAT 1 29 Mar 01:58:24 02:02:28 46° 99° (E) 02:06:26 437.445
AO-85 29 Mar 02:05:44 02:07:35 13° 4° (N) 02:09:24 145.980
O/OREOS (USA 219) 29 Mar 02:17:08 02:21:40 54° 56° (ENE) 02:26:12 437.305
DX 1 29 Mar 02:19:22 02:23:06 28° 265° (W) 02:26:53 434.975-435.025
MOZHAYETS 4 29 Mar 02:19:59 02:22:17 14° 54° (NE) 02:24:35
AIST 2D 29 Mar 02:22:06 02:24:20 16° 298° (WNW) 02:26:33 435.315
Oscar 19 29 Mar 02:23:28 02:28:01 30° 94° (E) 02:32:33 437.125/150
BEESAT 29 Mar 02:25:11 02:29:22 31° 62° (ENE) 02:33:34 436.000
NANOSAT C BR1 29 Mar 02:41:29 02:45:03 26° 297° (WNW) 02:48:34 145.865
ITUPSAT 1 29 Mar 02:42:55 02:47:25 42° 66° (ENE) 02:51:56 437.325
BEESAT 3 29 Mar 02:46:30 02:48:29 13° 353° (N) 02:50:29 437.485
EO-79 29 Mar 02:48:02 02:51:21 22° 299° (WNW) 02:54:39 145.935-145.965
Tancredo 1 29 Mar 02:53:46 02:56:14 21° 214° (SW) 02:58:42 437.200
UKube-1 29 Mar 02:54:47 02:57:46 18° 269° (W) 03:00:47 .
Gurwin Techsat 1B 29 Mar 02:59:47 03:04:44 37° 96° (E) 03:09:37 435.225
ISS 29 Mar 03:06:28 03:08:56 20° 216° (SW) 03:11:24 437.550
BEESAT 2 29 Mar 03:07:48 03:10:03 14° 349° (NNW) 03:12:17 435.950
POLYITAN 1 29 Mar 03:18:00 03:20:05 13° 305° (NW) 03:22:10 437.675
KKS-1 29 Mar 03:18:04 03:20:03 13° 52° (NE) 03:22:03 437.445
CUBESAT XI-V 29 Mar 03:21:02 03:22:05 11° 50° (NE) 03:23:08 437.345
QB50P2 29 Mar 03:23:14 03:24:46 12° 307° (NW) 03:26:18 145.880/145.840
DUCHIFAT 1 29 Mar 03:30:53 03:32:35 12° 306° (NW) 03:34:15 145.980
BUGSAT 1 29 Mar 03:34:15 03:37:35 24° 298° (WNW) 03:40:54 437.445
AO-85 29 Mar 03:46:06 03:49:20 23° 29° (NNE) 03:52:33 145.980
STARS 29 Mar 03:46:50 03:48:21 12° 51° (NE) 03:49:53 437.465
MOZHAYETS 4 29 Mar 03:54:08 03:58:44 78° 73° (ENE) 04:03:19
O/OREOS (USA 219) 29 Mar 03:57:06 04:00:46 24° 256° (WSW) 04:04:26 437.305
BEESAT 29 Mar 04:02:30 04:07:02 42° 262° (W) 04:11:36 436.000
Oscar 19 29 Mar 04:02:34 04:07:32 48° 294° (WNW) 04:12:30 437.125/150
ITAMSAT 1 29 Mar 04:16:31 04:21:09 31° 95° (E) 04:25:45 435.822/435.867
ITUPSAT 1 29 Mar 04:21:08 04:25:23 30° 265° (W) 04:29:37 437.325
BEESAT 3 29 Mar 04:25:08 04:27:38 16° 17° (NNE) 04:30:07 437.485
AO-7 29 Mar 04:39:18 04:47:05 42° 98° (E) 04:54:48 .
Gurwin Techsat 1B 29 Mar 04:39:45 04:44:45 41° 296° (WNW) 04:49:42 435.225
M-CUBED/EXP-1 PRIME 29 Mar 04:45:56 04:47:14 11° 43° (NE) 04:48:33 437.505
BEESAT 2 29 Mar 04:47:05 04:49:23 15° 13° (NNE) 04:51:42 435.950
KKS-1 29 Mar 04:51:23 04:55:50 72° 72° (ENE) 05:00:21 437.445
CUBESAT XI-V 29 Mar 04:54:02 04:58:31 58° 70° (ENE) 05:03:03 437.345
STARS 29 Mar 05:19:29 05:23:52 65° 71° (ENE) 05:28:18 437.465
AO-85 29 Mar 05:26:13 05:30:08 76° 230° (SW) 05:34:07 145.980
MOZHAYETS 4 29 Mar 05:33:44 05:36:28 15° 272° (W) 05:39:12
Oscar 19 29 Mar 05:44:38 05:45:43 11° 314° (NW) 05:46:47 437.125/150
DOVE 4 29 Mar 05:54:04 05:55:04 10° 80° (E) 05:56:03 437.250
ITAMSAT 1 29 Mar 05:55:50 06:00:48 46° 294° (WNW) 06:05:44 435.822/435.867
BEESAT 3 29 Mar 06:02:22 06:06:13 41° 39° (NE) 06:10:04 437.485
M-CUBED/EXP-1 PRIME 29 Mar 06:16:55 06:20:46 59° 64° (ENE) 06:24:57 437.505
BEESAT 2 29 Mar 06:24:33 06:28:17 33° 36° (NE) 06:32:01 435.950
CUTE-I 29 Mar 06:28:26 06:30:59 13° 85° (E) 06:33:31 437.470
KKS-1 29 Mar 06:30:05 06:32:55 16° 271° (W) 06:35:45 437.445
AO-7 29 Mar 06:32:06 06:40:12 60° 300° (WNW) 06:48:17 .
CUBESAT XI-V 29 Mar 06:32:50 06:36:17 21° 270° (W) 06:39:45 437.345
YUBILEINY 29 Mar 06:44:07 06:50:06 21° 74° (ENE) 06:56:05 435.215
STRAND 1 29 Mar 06:56:52 07:01:29 35° 63° (ENE) 07:06:07 437.568
STARS 29 Mar 06:57:38 07:00:39 18° 270° (W) 07:03:41 437.465
AO-85 29 Mar 07:08:56 07:09:50 11° 249° (WSW) 07:10:44 145.980
XW-2F 29 Mar 07:08:59 07:12:07 25° 94° (E) 07:15:13 145.980 - 146.000
LilacSat-2 29 Mar 07:15:38 07:19:02 31° 96° (E) 07:22:25 437.200
NUDT-PHONESAT 29 Mar 07:25:25 07:28:44 30° 96° (E) 07:32:00 437.300
HO-68 29 Mar 07:25:35 07:29:01 14° 82° (E) 07:32:26 435.675
